Location: Canyon City
(32.5951°N, 116.5278°W)
Time: 18:46:08
(UTC+00:00)

OAO 3 Rocket - Visible Passes

Search period start: 05 December 2024 00:00
Search period end: 15 December 2024 00:00
Orbit: 618 x 667 km, 35.0° (Epoch: 05 December)

Date Brightness Start Highest point End Pass type
(mag) Time Alt. Az. Time Alt. Az. Time Alt. Az.
05 Dec 4.9 12:41:30 14° SSW 12:44:35 27° SSE 12:48:30 10° E visible
06 Dec 6.1 11:27:40 11° ESE 11:27:40 11° ESE 11:28:12 10° ESE visible
06 Dec 3.8 13:05:15 17° SW 13:08:36 50° SSE 13:13:06 10° E visible
07 Dec 5.2 11:51:13 23° ESE 11:51:13 23° ESE 11:53:47 10° E visible
07 Dec 3.1 13:28:47 14° WSW 13:32:45 83° SSE 13:37:23 10° ENE visible
08 Dec 4.0 12:14:35 45° SE 12:14:35 45° SE 12:18:21 10° E visible
08 Dec 3.1 13:52:18 10° W 13:56:59 72° N 14:01:37 10° ENE visible
09 Dec 3.0 12:37:48 80° SSW 12:37:58 82° SSE 12:42:37 10° ENE visible
10 Dec 6.2 11:23:22 11° E 11:23:22 11° E 11:23:35 10° E visible
10 Dec 3.0 13:00:54 47° W 13:02:11 73° N 13:06:51 10° ENE visible
11 Dec 5.5 11:46:22 20° ENE 11:46:22 20° ENE 11:47:51 10° ENE visible
11 Dec 3.2 13:23:55 26° WNW 13:26:28 64° N 13:31:06 10° E visible
12 Dec 4.5 12:09:20 34° ENE 12:09:20 34° ENE 12:12:03 10° ENE visible
12 Dec 3.2 13:46:51 15° WNW 13:50:46 68° N 13:55:23 10° E visible
13 Dec 3.5 12:32:13 58° NE 12:32:13 58° NE 12:36:17 10° E visible
13 Dec 3.1 14:10:16 10° WNW 14:14:59 88° N 14:19:39 10° ESE visible
14 Dec 3.1 12:55:05 56° NW 12:55:54 68° N 13:00:33 10° E visible
